Meteo pe oră la Alma

Astăzi, 20 Ianuarie, Miercuri

Timp Temperatura Precipitaţii Vânt Presiune Umiditate
00:00 -17°C° 0 mm 0 m/s 747 mmHg 87%
01:00 -16°C° 0 mm 0 m/s 746 mmHg 87%
02:00 -16°C° 0.1 mm 0 m/s 746 mmHg 89%
03:00 -16°C° 0.1 mm 0 m/s 746 mmHg 90%
04:00 -15°C° 0.1 mm 0 m/s 746 mmHg 92%
05:00 -15°C° 0.1 mm 1 m/s 746 mmHg 93%
06:00 -15°C° 0.1 mm 1 m/s 746 mmHg 94%
07:00 -15°C° 0.1 mm 1 m/s 746 mmHg 94%
08:00 -15°C° 0.1 mm 1 m/s 746 mmHg 92%
09:00 -14°C° 0.1 mm 1 m/s 746 mmHg 90%
10:00 -16°C° 0.1 mm 2 m/s 746 mmHg 88%
11:00 -15°C° 0 mm 2 m/s 746 mmHg 86%
12:00 -15°C° 0 mm 2 m/s 745 mmHg 84%
13:00 -15°C° 0 mm 2 m/s 745 mmHg 83%
14:00 -15°C° 0 mm 2 m/s 745 mmHg 85%
15:00 -16°C° 0 mm 2 m/s 745 mmHg 87%
16:00 -16°C° 0 mm 2 m/s 746 mmHg 89%
17:00 -17°C° 0 mm 2 m/s 746 mmHg 90%
18:00 -17°C° 0 mm 2 m/s 746 mmHg 91%
19:00 -16°C° 0 mm 1 m/s 746 mmHg 92%
20:00 -16°C° 0 mm 1 m/s 746 mmHg 93%
21:00 -16°C° 0 mm 1 m/s 746 mmHg 94%
22:00 -19°C° 0 mm 2 m/s 746 mmHg 95%
23:00 -17°C° 0 mm 1 m/s 745 mmHg 95%

Mâine, 21 Ianuarie, Joi

Timp Temperatura Precipitaţii Vânt Presiune Umiditate
00:00 -18°C° 0 mm 1 m/s 745 mmHg 96%
01:00 -19°C° 0 mm 1 m/s 745 mmHg 96%
02:00 -19°C° 0 mm 1 m/s 744 mmHg 96%
03:00 -19°C° 0 mm 1 m/s 744 mmHg 96%
04:00 -19°C° 0 mm 0 m/s 744 mmHg 95%
05:00 -19°C° 0 mm 0 m/s 744 mmHg 94%
06:00 -18°C° 0 mm 1 m/s 743 mmHg 93%
07:00 -18°C° 0 mm 1 m/s 742 mmHg 92%
08:00 -17°C° 0 mm 1 m/s 742 mmHg 89%
09:00 -18°C° 0 mm 2 m/s 741 mmHg 87%
10:00 -17°C° 0 mm 2 m/s 741 mmHg 84%
11:00 -16°C° 0 mm 2 m/s 740 mmHg 82%
12:00 -15°C° 0 mm 2 m/s 739 mmHg 80%
13:00 -13°C° 0 mm 2 m/s 739 mmHg 78%
14:00 -13°C° 0 mm 2 m/s 739 mmHg 79%
15:00 -13°C° 0 mm 2 m/s 738 mmHg 81%
16:00 -13°C° 0 mm 2 m/s 738 mmHg 82%
17:00 -13°C° 0 mm 2 m/s 738 mmHg 83%
18:00 -14°C° 0 mm 3 m/s 738 mmHg 84%
19:00 -14°C° 0 mm 3 m/s 738 mmHg 85%
20:00 -14°C° 0 mm 3 m/s 738 mmHg 87%
21:00 -14°C° 0 mm 3 m/s 738 mmHg 89%
22:00 -14°C° 0 mm 3 m/s 738 mmHg 90%
23:00 -14°C° 0.1 mm 3 m/s 738 mmHg 91%

Poimâine, 22 Ianuarie, Vineri

Timp Temperatura Precipitaţii Vânt Presiune Umiditate
00:00 -14°C° 0.1 mm 3 m/s 738 mmHg 91%
01:00 -14°C° 0.1 mm 3 m/s 737 mmHg 91%
02:00 -14°C° 0.1 mm 3 m/s 738 mmHg 91%
03:00 -14°C° 0.1 mm 3 m/s 738 mmHg 90%
04:00 -14°C° 0.1 mm 3 m/s 738 mmHg 90%
05:00 -14°C° 0 mm 3 m/s 738 mmHg 89%
06:00 -14°C° 0 mm 3 m/s 739 mmHg 88%
07:00 -13°C° 0 mm 3 m/s 739 mmHg 87%
08:00 -13°C° 0 mm 3 m/s 739 mmHg 85%
09:00 -12°C° 0 mm 3 m/s 739 mmHg 82%
10:00 -10°C° 0 mm 3 m/s 740 mmHg 79%
11:00 -10°C° 0 mm 3 m/s 740 mmHg 80%
12:00 -9°C° 0 mm 3 m/s 740 mmHg 80%
13:00 -8°C° 0 mm 3 m/s 740 mmHg 81%
14:00 -8°C° 0 mm 2 m/s 740 mmHg 83%
15:00 -8°C° 0 mm 2 m/s 740 mmHg 85%
16:00 -8°C° 0 mm 2 m/s 741 mmHg 88%
17:00 -9°C° 0 mm 2 m/s 741 mmHg 89%
18:00 -9°C° 0 mm 2 m/s 741 mmHg 90%
19:00 -9°C° 0 mm 1 m/s 742 mmHg 92%
20:00 -9°C° 0 mm 1 m/s 742 mmHg 92%
21:00 -9°C° 0 mm 1 m/s 742 mmHg 93%
22:00 -9°C° 0 mm 1 m/s 743 mmHg 94%
23:00 -9°C° 0 mm 1 m/s 743 mmHg 93%

23 Ianuarie, Sâmbătă

Timp Temperatura Precipitaţii Vânt Presiune Umiditate
00:00 -9°C° 0 mm 1 m/s 743 mmHg 93%
01:00 -9°C° 0 mm 1 m/s 743 mmHg 92%
02:00 -9°C° 0 mm 1 m/s 743 mmHg 93%
03:00 -10°C° 0 mm 2 m/s 744 mmHg 93%
04:00 -10°C° 0 mm 2 m/s 744 mmHg 94%
05:00 -12°C° 0.1 mm 2 m/s 744 mmHg 93%
06:00 -13°C° 0.1 mm 3 m/s 745 mmHg 93%
07:00 -13°C° 0.1 mm 3 m/s 745 mmHg 93%
08:00 -13°C° 0.1 mm 3 m/s 745 mmHg 91%
09:00 -14°C° 0.1 mm 4 m/s 745 mmHg 89%
10:00 -14°C° 0.1 mm 4 m/s 745 mmHg 88%
11:00 -14°C° 0 mm 5 m/s 745 mmHg 85%
12:00 -13°C° 0 mm 5 m/s 745 mmHg 83%
13:00 -14°C° 0 mm 6 m/s 745 mmHg 80%
14:00 -15°C° 0 mm 6 m/s 745 mmHg 79%
15:00 -15°C° 0 mm 6 m/s 745 mmHg 78%
16:00 -16°C° 0 mm 6 m/s 745 mmHg 78%
17:00 -17°C° 0 mm 6 m/s 746 mmHg 78%
18:00 -19°C° 0 mm 7 m/s 746 mmHg 79%
19:00 -19°C° 0 mm 7 m/s 747 mmHg 79%
20:00 -20°C° 0 mm 7 m/s 747 mmHg 81%
21:00 -20°C° 0 mm 6 m/s 747 mmHg 82%
22:00 -21°C° 0 mm 6 m/s 747 mmHg 83%
23:00 -21°C° 0 mm 6 m/s 747 mmHg 84%

24 Ianuarie, Duminică

Timp Temperatura Precipitaţii Vânt Presiune Umiditate
00:00 -21°C° 0 mm 6 m/s 747 mmHg 84%
01:00 -21°C° 0 mm 6 m/s 747 mmHg 85%
02:00 -21°C° 0 mm 6 m/s 748 mmHg 85%
03:00 -21°C° 0 mm 6 m/s 748 mmHg 86%
04:00 -22°C° 0 mm 6 m/s 748 mmHg 87%
05:00 -22°C° 0.1 mm 6 m/s 749 mmHg 87%
06:00 -22°C° 0.1 mm 6 m/s 749 mmHg 87%
07:00 -22°C° 0.1 mm 6 m/s 749 mmHg 88%
08:00 -21°C° 0 mm 5 m/s 749 mmHg 87%
09:00 -21°C° 0 mm 5 m/s 749 mmHg 86%
10:00 -20°C° 0 mm 5 m/s 750 mmHg 85%
11:00 -20°C° 0 mm 5 m/s 749 mmHg 85%
12:00 -18°C° 0 mm 4 m/s 749 mmHg 84%
13:00 -17°C° 0 mm 4 m/s 749 mmHg 84%
14:00 -17°C° 0 mm 4 m/s 749 mmHg 85%
15:00 -17°C° 0 mm 4 m/s 749 mmHg 87%
16:00 -16°C° 0 mm 4 m/s 749 mmHg 89%
17:00 -17°C° 0 mm 4 m/s 749 mmHg 90%
18:00 -17°C° 0 mm 4 m/s 749 mmHg 90%
19:00 -18°C° 0 mm 4 m/s 750 mmHg 91%
20:00 -18°C° 0 mm 3 m/s 749 mmHg 92%
21:00 -18°C° 0 mm 3 m/s 749 mmHg 92%
22:00 -19°C° 0 mm 3 m/s 749 mmHg 93%
23:00 -19°C° 0 mm 3 m/s 749 mmHg 94%

25 Ianuarie, Luni

Timp Temperatura Precipitaţii Vânt Presiune Umiditate
00:00 -19°C° 0 mm 3 m/s 748 mmHg 94%
01:00 -19°C° 0 mm 2 m/s 748 mmHg 95%
02:00 -19°C° 0 mm 2 m/s 748 mmHg 95%
03:00 -20°C° 0 mm 2 m/s 748 mmHg 95%
04:00 -20°C° 0 mm 2 m/s 748 mmHg 95%
05:00 -20°C° 0 mm 2 m/s 748 mmHg 96%
06:00 -21°C° 0 mm 2 m/s 747 mmHg 96%
07:00 -21°C° 0 mm 2 m/s 747 mmHg 96%
08:00 -20°C° 0 mm 2 m/s 747 mmHg 93%
09:00 -19°C° 0 mm 2 m/s 747 mmHg 91%
10:00 -18°C° 0 mm 2 m/s 747 mmHg 88%
11:00 -17°C° 0 mm 2 m/s 746 mmHg 87%
12:00 -16°C° 0 mm 2 m/s 746 mmHg 86%
13:00 -15°C° 0 mm 2 m/s 745 mmHg 84%
14:00 -15°C° 0 mm 2 m/s 745 mmHg 87%
15:00 -13°C° 0 mm 1 m/s 745 mmHg 90%
16:00 -13°C° 0 mm 1 m/s 745 mmHg 93%
17:00 -13°C° 0 mm 1 m/s 745 mmHg 93%
18:00 -13°C° 0 mm 1 m/s 746 mmHg 94%
19:00 -13°C° 0 mm 1 m/s 746 mmHg 95%
20:00 -13°C° 0.1 mm 1 m/s 746 mmHg 95%
21:00 -13°C° 0.1 mm 1 m/s 746 mmHg 96%
22:00 -13°C° 0.1 mm 1 m/s 747 mmHg 96%
23:00 -13°C° 0 mm 1 m/s 747 mmHg 96%
Arată mai mult

Formular de consimțământ

Meteoprog și furnizorii noștri de servicii pot stoca și accesa date personale, precum cookies, identificatori de dispozitiv sau alte tehnologii similare pe dispozitivul dumneavoastră și procesa astfel de date pentru a personaliza conținutul și reclamele, dar și pentru a oferi caracteristici de social media și pentru a analiza traficul.

  • Stocarea și/sau accesarea informațiilor pe dispozitivul dumneavoastră

    Cookies, identificatori de dispozitiv sau alte informații pot fi stocate sau accesate pe dispozitiv în scopurile indicate mai sus.

  • Reclame și conținut personalizat, evaluarea reclamelor și a conținutului, informații despre audiențe și dezvoltarea produselor

    Reclamele și conținutul pot fi personalizate pe baza unui profil. Pot fi adăugate date suplimentare pentru a personaliza mai bine reclamele și conținutul. Performanța reclamelor și conținutului poate fi măsurată. Pot fi obținute informații despre utilizatorii care au văzut reclamele și conținutul. Aceste date pot fi utilizate pentru a dezvolta sau îmbunătăți experiența utilizatorilor, sistemele și software-ul.

Dând clic pe ‘Sunt de acord’, permiteți utilizarea cookie-urilor menționate, a identificatorilor de dispozitiv, balizelor web sau altor tehnologii similare. Setările pot fi modificate din browser-ul dispozitivului dumneavoastră.

În anumite scopuri, interesele legitime pot prima asupra consimțământului. Puteți citi mai multe informații în acest sens în Politica privind Confidențialitatea Datelor și Cookie.